Time,TemperatureF,DewpointF,PressureIn,WindDirection,WindDirectionDegrees,WindSpeedMPH,WindSpeedGustMPH,Humidity,HourlyPrecipIn,Conditions,Clouds,dailyrainin,SoftwareType,DateUTC
2013-07-28 00:02:00,71.8,69.3,29.99,WNW,291,0.0,0.0,92,0.00,,,0.00,Wunderground v.1.15,2013-07-28 04:02:00,
2013-07-28 00:06:00,71.8,69.3,29.99,WNW,291,0.0,0.0,92,0.00,,,0.00,Wunderground v.1.15,2013-07-28 04:06:00,
2013-07-28 00:08:00,71.8,69.3,29.99,WNW,291,0.0,0.0,92,0.00,,,0.00,Wunderground v.1.15,2013-07-28 04:08:00,
2013-07-28 00:12:00,71.7,69.3,29.99,West,279,0.0,1.0,92,0.00,,,0.00,Wunderground v.1.15,2013-07-28 04:12:00,
2013-07-28 00:18:00,71.7,69.3,29.99,WNW,285,0.0,1.0,92,0.00,,,0.00,Wunderground v.1.15,2013-07-28 04:18:00,
2013-07-28 00:20:00,71.7,69.3,29.99,WNW,284,0.0,0.0,92,0.00,,,0.00,Wunderground v.1.15,2013-07-28 04:20:00,
2013-07-28 00:26:00,71.7,69.3,29.99,WNW,284,0.0,0.0,92,0.00,,,0.00,Wunderground v.1.15,2013-07-28 04:26:00,
2013-07-28 00:32:00,71.6,69.2,29.99,WNW,284,0.0,3.0,92,0.00,,,0.00,Wunderground v.1.15,2013-07-28 04:32:00,
2013-07-28 00:38:00,71.6,69.2,29.99,WNW,284,0.0,3.0,92,0.00,,,0.00,Wunderground v.1.15,2013-07-28 04:38:00,
2013-07-28 00:44:00,71.6,69.2,29.99,WNW,284,0.0,3.0,92,0.00,,,0.00,Wunderground v.1.15,2013-07-28 04:44:00,
2013-07-28 00:50:00,71.5,69.1,29.99,WNW,284,0.0,3.0,92,0.00,,,0.00,Wunderground v.1.15,2013-07-28 04:50:00,
2013-07-28 00:56:00,71.5,69.1,29.99,WNW,284,0.0,3.0,92,0.00,,,0.00,Wunderground v.1.15,2013-07-28 04:56:00,
2013-07-28 01:02:00,71.5,69.1,29.99,WNW,284,0.0,3.0,92,0.00,,,0.00,Wunderground v.1.15,2013-07-28 05:02:00,
2013-07-28 01:08:00,71.5,69.1,29.99,WNW,284,0.0,3.0,92,0.00,,,0.00,Wunderground v.1.15,2013-07-28 05:08:00,
2013-07-28 01:14:00,71.5,69.1,29.98,WNW,284,0.0,3.0,92,0.00,,,0.00,Wunderground v.1.15,2013-07-28 05:14:00,
2013-07-28 01:20:00,71.4,69.0,29.99,WNW,284,0.0,3.0,92,0.00,,,0.00,Wunderground v.1.15,2013-07-28 05:20:00,
2013-07-28 01:26:00,71.5,69.1,29.98,WNW,284,0.0,3.0,92,0.00,,,0.00,Wunderground v.1.15,2013-07-28 05:26:00,
2013-07-28 01:32:00,71.5,69.1,29.98,WNW,284,0.0,3.0,92,0.00,,,0.00,Wunderground v.1.15,2013-07-28 05:32:00,
2013-07-28 01:38:00,71.5,69.1,29.98,West,267,0.0,3.0,92,0.00,,,0.00,Wunderground v.1.15,2013-07-28 05:38:00,
2013-07-28 01:44:00,71.5,69.1,29.98,West,267,0.0,3.0,92,0.00,,,0.00,Wunderground v.1.15,2013-07-28 05:44:00,
2013-07-28 01:50:00,71.6,69.2,29.97,West,267,0.0,3.0,92,0.00,,,0.00,Wunderground v.1.15,2013-07-28 05:50:00,
2013-07-28 01:56:00,71.6,69.2,29.97,West,267,0.0,3.0,92,0.00,,,0.00,Wunderground v.1.15,2013-07-28 05:56:00,
2013-07-28 02:02:00,71.6,69.2,29.97,West,267,0.0,3.0,92,0.00,,,0.00,Wunderground v.1.15,2013-07-28 06:02:00,
2013-07-28 02:08:00,71.7,69.3,29.97,West,267,0.0,3.0,92,0.00,,,0.00,Wunderground v.1.15,2013-07-28 06:08:00,
2013-07-28 02:14:00,71.7,69.3,29.97,West,267,0.0,3.0,92,0.00,,,0.00,Wunderground v.1.15,2013-07-28 06:14:00,
2013-07-28 02:20:00,71.7,69.3,29.97,West,267,0.0,3.0,92,0.00,,,0.00,Wunderground v.1.15,2013-07-28 06:20:00,
2013-07-28 02:26:00,71.7,69.3,29.97,NNW,329,0.0,3.0,92,0.00,,,0.00,Wunderground v.1.15,2013-07-28 06:26:00,
2013-07-28 02:32:00,71.7,69.3,29.97,NW,311,1.0,3.0,92,0.00,,,0.00,Wunderground v.1.15,2013-07-28 06:32:00,
2013-07-28 02:38:00,71.8,69.3,29.97,West,268,1.0,3.0,92,0.00,,,0.00,Wunderground v.1.15,2013-07-28 06:38:00,
2013-07-28 02:44:00,71.8,69.3,29.97,NNW,332,1.0,3.0,92,0.00,,,0.00,Wunderground v.1.15,2013-07-28 06:44:00,
2013-07-28 02:50:00,71.8,69.3,29.97,WNW,299,0.0,3.0,92,0.00,,,0.00,Wunderground v.1.15,2013-07-28 06:50:00,
2013-07-28 02:56:00,71.9,69.4,29.97,WNW,301,1.0,3.0,92,0.00,,,0.00,Wunderground v.1.15,2013-07-28 06:56:00,
2013-07-28 03:02:00,71.9,69.4,29.97,West,281,0.0,3.0,92,0.00,,,0.00,Wunderground v.1.15,2013-07-28 07:02:00,
2013-07-28 03:08:00,71.9,69.4,29.97,North,356,1.0,4.0,92,0.00,,,0.00,Wunderground v.1.15,2013-07-28 07:08:00,
2013-07-28 03:14:00,71.8,69.3,29.97,WNW,287,2.0,3.0,92,0.00,,,0.00,Wunderground v.1.15,2013-07-28 07:14:00,
2013-07-28 03:20:00,71.8,69.3,29.97,WNW,285,2.0,2.0,92,0.00,,,0.00,Wunderground v.1.15,2013-07-28 07:20:00,
2013-07-28 03:26:00,71.8,69.3,29.97,WNW,287,1.0,3.0,92,0.00,,,0.00,Wunderground v.1.15,2013-07-28 07:26:00,
2013-07-28 03:32:00,71.7,69.3,29.97,WNW,295,1.0,3.0,92,0.00,,,0.00,Wunderground v.1.15,2013-07-28 07:32:00,
2013-07-28 03:38:00,71.6,69.2,29.97,NW,306,1.0,3.0,92,0.00,,,0.00,Wunderground v.1.15,2013-07-28 07:38:00,
2013-07-28 03:44:00,71.6,69.2,29.97,NNW,331,2.0,4.0,92,0.00,,,0.00,Wunderground v.1.15,2013-07-28 07:44:00,
2013-07-28 03:50:00,71.5,69.1,29.98,WNW,282,1.0,3.0,92,0.00,,,0.00,Wunderground v.1.15,2013-07-28 07:50:00,
2013-07-28 03:56:00,71.5,69.1,29.98,WNW,285,1.0,3.0,92,0.00,,,0.00,Wunderground v.1.15,2013-07-28 07:56:00,
2013-07-28 04:02:00,71.5,69.1,29.98,WNW,289,1.0,3.0,92,0.00,,,0.00,Wunderground v.1.15,2013-07-28 08:02:00,
2013-07-28 04:08:00,71.5,69.1,29.98,WNW,285,0.0,3.0,92,0.00,,,0.00,Wunderground v.1.15,2013-07-28 08:08:00,
2013-07-28 04:14:00,71.5,69.1,29.98,West,275,0.0,3.0,92,0.00,,,0.00,Wunderground v.1.15,2013-07-28 08:14:00,
2013-07-28 04:20:00,71.5,69.1,29.98,WNW,293,1.0,3.0,92,0.00,,,0.00,Wunderground v.1.15,2013-07-28 08:20:00,
2013-07-28 04:26:00,71.5,69.1,29.98,WNW,289,1.0,3.0,92,0.00,,,0.00,Wunderground v.1.15,2013-07-28 08:26:00,
2013-07-28 04:32:00,71.5,69.1,29.98,NNW,337,0.0,3.0,92,0.00,,,0.00,Wunderground v.1.15,2013-07-28 08:32:00,
2013-07-28 04:38:00,71.5,69.1,29.98,West,276,0.0,3.0,92,0.00,,,0.00,Wunderground v.1.15,2013-07-28 08:38:00,
2013-07-28 04:44:00,71.5,69.1,29.98,NW,325,0.0,3.0,92,0.00,,,0.00,Wunderground v.1.15,2013-07-28 08:44:00,
2013-07-28 04:50:00,71.4,69.0,29.98,WNW,292,0.0,3.0,92,0.00,,,0.00,Wunderground v.1.15,2013-07-28 08:50:00,
2013-07-28 04:56:00,71.4,69.3,29.98,WNW,287,0.0,3.0,93,0.00,,,0.00,Wunderground v.1.15,2013-07-28 08:56:00,
2013-07-28 05:02:00,71.3,68.9,29.98,WNW,291,0.0,3.0,92,0.00,,,0.00,Wunderground v.1.15,2013-07-28 09:02:00,
2013-07-28 05:08:00,71.2,68.8,29.98,NW,323,0.0,3.0,92,0.00,,,0.00,Wunderground v.1.15,2013-07-28 09:08:00,
2013-07-28 05:14:00,71.2,68.8,29.98,WNW,292,0.0,3.0,92,0.00,,,0.00,Wunderground v.1.15,2013-07-28 09:14:00,
2013-07-28 05:20:00,71.1,68.7,29.98,West,281,0.0,3.0,92,0.00,,,0.00,Wunderground v.1.15,2013-07-28 09:20:00,
2013-07-28 05:26:00,71.2,68.8,29.98,WNW,291,0.0,3.0,92,0.00,,,0.00,Wunderground v.1.15,2013-07-28 09:26:00,
2013-07-28 05:32:00,71.2,68.8,29.98,WNW,291,0.0,3.0,92,0.00,,,0.00,Wunderground v.1.15,2013-07-28 09:32:00,
2013-07-28 05:38:00,71.1,68.7,29.98,WNW,291,0.0,3.0,92,0.00,,,0.00,Wunderground v.1.15,2013-07-28 09:38:00,
2013-07-28 05:44:00,71.1,68.7,29.99,WNW,291,0.0,3.0,92,0.00,,,0.00,Wunderground v.1.15,2013-07-28 09:44:00,
2013-07-28 05:50:00,71.0,68.6,29.99,WNW,291,0.0,3.0,92,0.00,,,0.00,Wunderground v.1.15,2013-07-28 09:50:00,
2013-07-28 05:56:00,71.0,68.6,29.99,WNW,291,0.0,3.0,92,0.00,,,0.00,Wunderground v.1.15,2013-07-28 09:56:00,
2013-07-28 06:02:00,71.0,68.6,29.99,WNW,291,0.0,3.0,92,0.00,,,0.00,Wunderground v.1.15,2013-07-28 10:02:00,
2013-07-28 06:08:00,71.1,68.7,29.99,WNW,291,0.0,3.0,92,0.00,,,0.00,Wunderground v.1.15,2013-07-28 10:08:00,
2013-07-28 06:14:00,71.1,68.7,30.00,NW,324,0.0,3.0,92,0.00,,,0.00,Wunderground v.1.15,2013-07-28 10:14:00,
2013-07-28 06:20:00,71.1,68.7,30.00,NNW,348,1.0,3.0,92,0.00,,,0.00,Wunderground v.1.15,2013-07-28 10:20:00,
2013-07-28 06:26:00,71.1,68.7,30.00,WNW,301,1.0,3.0,92,0.00,,,0.00,Wunderground v.1.15,2013-07-28 10:26:00,
2013-07-28 06:32:00,71.1,68.7,29.99,WNW,297,1.0,3.0,92,0.00,,,0.00,Wunderground v.1.15,2013-07-28 10:32:00,
2013-07-28 06:38:00,71.1,68.7,30.00,WNW,297,1.0,3.0,92,0.00,,,0.00,Wunderground v.1.15,2013-07-28 10:38:00,
2013-07-28 06:44:00,71.2,68.8,30.00,NW,305,0.0,3.0,92,0.00,,,0.00,Wunderground v.1.15,2013-07-28 10:44:00,
2013-07-28 06:50:00,71.2,68.8,30.00,NW,305,1.0,1.0,92,0.00,,,0.00,Wunderground v.1.15,2013-07-28 10:50:00,
2013-07-28 06:56:00,71.2,68.8,30.00,WNW,290,0.0,3.0,92,0.00,,,0.00,Wunderground v.1.15,2013-07-28 10:56:00,
2013-07-28 07:02:00,71.3,68.9,30.00,NNW,339,0.0,3.0,92,0.00,,,0.00,Wunderground v.1.15,2013-07-28 11:02:00,
2013-07-28 07:08:00,71.3,68.9,30.00,NW,324,0.0,3.0,92,0.00,,,0.00,Wunderground v.1.15,2013-07-28 11:08:00,
2013-07-28 07:14:00,71.3,69.2,30.00,NW,312,0.0,3.0,93,0.00,,,0.00,Wunderground v.1.15,2013-07-28 11:14:00,
2013-07-28 07:20:00,71.4,69.3,30.00,NNE,18,0.0,3.0,93,0.00,,,0.00,Wunderground v.1.15,2013-07-28 11:20:00,
2013-07-28 07:26:00,71.5,69.4,30.00,NNW,338,0.0,3.0,93,0.00,,,0.00,Wunderground v.1.15,2013-07-28 11:26:00,
2013-07-28 07:32:00,71.5,69.4,30.00,NW,326,0.0,3.0,93,0.00,,,0.00,Wunderground v.1.15,2013-07-28 11:32:00,
2013-07-28 07:38:00,71.6,69.5,30.00,NW,320,0.0,3.0,93,0.00,,,0.00,Wunderground v.1.15,2013-07-28 11:38:00,
2013-07-28 07:44:00,71.6,69.5,30.00,NW,321,0.0,3.0,93,0.00,,,0.00,Wunderground v.1.15,2013-07-28 11:44:00,
2013-07-28 07:50:00,71.7,69.3,30.00,NNW,339,0.0,3.0,92,0.00,,,0.00,Wunderground v.1.15,2013-07-28 11:50:00,
2013-07-28 07:56:00,71.7,69.3,30.01,NW,320,1.0,3.0,92,0.00,,,0.00,Wunderground v.1.15,2013-07-28 11:56:00,
2013-07-28 08:02:00,71.8,69.3,30.00,NW,326,1.0,3.0,92,0.00,,,0.00,Wunderground v.1.15,2013-07-28 12:02:00,
2013-07-28 08:08:00,71.8,69.3,30.01,NNW,342,0.0,3.0,92,0.00,,,0.00,Wunderground v.1.15,2013-07-28 12:08:00,
2013-07-28 08:14:00,71.9,69.4,30.01,NNW,328,1.0,3.0,92,0.00,,,0.00,Wunderground v.1.15,2013-07-28 12:14:00,
2013-07-28 08:20:00,72.1,70.0,30.00,NNW,341,1.0,1.0,93,0.00,,,0.00,Wunderground v.1.15,2013-07-28 12:20:00,
2013-07-28 08:26:00,72.3,69.8,30.01,NNE,12,1.0,3.0,92,0.00,,,0.00,Wunderground v.1.15,2013-07-28 12:26:00,
2013-07-28 08:32:00,72.4,69.9,30.01,NW,324,1.0,3.0,92,0.00,,,0.00,Wunderground v.1.15,2013-07-28 12:32:00,
2013-07-28 08:38:00,72.7,70.2,30.01,NW,322,0.0,3.0,92,0.00,,,0.00,Wunderground v.1.15,2013-07-28 12:38:00,
2013-07-28 08:44:00,73.0,70.5,30.01,NW,318,0.0,3.0,92,0.00,,,0.00,Wunderground v.1.15,2013-07-28 12:44:00,
2013-07-28 08:50:00,73.4,70.9,30.01,NW,320,1.0,1.0,92,0.00,,,0.00,Wunderground v.1.15,2013-07-28 12:50:00,
2013-07-28 08:56:00,73.8,71.3,30.01,NW,311,0.0,3.0,92,0.00,,,0.00,Wunderground v.1.15,2013-07-28 12:56:00,
2013-07-28 09:02:00,74.2,71.4,30.01,North,355,0.0,3.0,91,0.00,,,0.00,Wunderground v.1.15,2013-07-28 13:02:00,
2013-07-28 09:08:00,74.5,71.7,30.02,NE,45,0.0,3.0,91,0.00,,,0.00,Wunderground v.1.15,2013-07-28 13:08:00,
2013-07-28 09:14:00,74.4,71.3,30.01,NE,50,0.0,3.0,90,0.00,,,0.00,Wunderground v.1.15,2013-07-28 13:14:00,
2013-07-28 09:20:00,74.4,71.6,30.01,NNE,27,0.0,3.0,91,0.00,,,0.00,Wunderground v.1.15,2013-07-28 13:20:00,
2013-07-28 09:26:00,74.9,71.8,30.01,North,360,1.0,3.0,90,0.00,,,0.00,Wunderground v.1.15,2013-07-28 13:26:00,
2013-07-28 09:32:00,75.6,72.1,30.01,ENE,58,1.0,3.0,89,0.00,,,0.00,Wunderground v.1.15,2013-07-28 13:32:00,
2013-07-28 09:38:00,75.5,71.7,30.01,East,83,1.0,3.0,88,0.00,,,0.00,Wunderground v.1.15,2013-07-28 13:38:00,
2013-07-28 09:44:00,75.8,73.0,30.01,NNW,327,1.0,3.0,91,0.00,,,0.00,Wunderground v.1.15,2013-07-28 13:44:00,
2013-07-28 09:50:00,76.5,72.7,30.01,ENE,72,1.0,1.0,88,0.00,,,0.00,Wunderground v.1.15,2013-07-28 13:50:00,
2013-07-28 09:56:00,77.3,73.1,30.00,NNE,18,0.0,3.0,87,0.00,,,0.00,Wunderground v.1.15,2013-07-28 13:56:00,
2013-07-28 10:02:00,77.9,73.7,30.00,NNW,347,0.0,3.0,87,0.00,,,0.00,Wunderground v.1.15,2013-07-28 14:02:00,
2013-07-28 10:08:00,78.5,73.6,30.01,NNW,334,1.0,3.0,85,0.00,,,0.00,Wunderground v.1.15,2013-07-28 14:08:00,
2013-07-28 10:14:00,78.9,72.9,30.01,NW,320,1.0,3.0,82,0.00,,,0.00,Wunderground v.1.15,2013-07-28 14:14:00,
2013-07-28 10:20:00,78.9,72.9,30.01,NW,318,1.0,3.0,82,0.00,,,0.00,Wunderground v.1.15,2013-07-28 14:20:00,
2013-07-28 10:26:00,79.4,74.1,30.01,North,353,1.0,3.0,84,0.00,,,0.00,Wunderground v.1.15,2013-07-28 14:26:00,
2013-07-28 10:32:00,79.5,73.5,30.01,NE,54,0.0,3.0,82,0.00,,,0.00,Wunderground v.1.15,2013-07-28 14:32:00,
2013-07-28 10:38:00,79.2,72.5,30.01,ENE,58,1.0,3.0,80,0.00,,,0.00,Wunderground v.1.15,2013-07-28 14:38:00,
2013-07-28 10:44:00,78.9,72.6,30.01,NE,42,1.0,3.0,81,0.00,,,0.00,Wunderground v.1.15,2013-07-28 14:44:00,
2013-07-28 10:50:00,79.4,73.4,30.01,NE,50,1.0,1.0,82,0.00,,,0.00,Wunderground v.1.15,2013-07-28 14:50:00,
2013-07-28 10:56:00,80.2,74.2,30.01,NNE,14,1.0,3.0,82,0.00,,,0.00,Wunderground v.1.15,2013-07-28 14:56:00,
2013-07-28 11:02:00,81.1,74.7,30.01,North,10,1.0,3.0,81,0.00,,,0.00,Wunderground v.1.15,2013-07-28 15:02:00,
2013-07-28 11:08:00,81.2,74.1,30.01,NNW,335,1.0,3.0,79,0.00,,,0.00,Wunderground v.1.15,2013-07-28 15:08:00,
2013-07-28 11:14:00,81.2,73.7,30.01,NNW,333,2.0,3.0,78,0.00,,,0.00,Wunderground v.1.15,2013-07-28 15:14:00,
2013-07-28 11:20:00,81.6,74.5,30.01,NE,50,1.0,1.0,79,0.00,,,0.00,Wunderground v.1.15,2013-07-28 15:20:00,
2013-07-28 11:26:00,81.9,74.0,30.01,NNE,22,1.0,3.0,77,0.00,,,0.00,Wunderground v.1.15,2013-07-28 15:26:00,
2013-07-28 11:32:00,81.5,73.6,30.01,ENE,68,1.0,3.0,77,0.00,,,0.00,Wunderground v.1.15,2013-07-28 15:32:00,
2013-07-28 11:38:00,82.0,74.5,30.01,North,7,1.0,3.0,78,0.00,,,0.00,Wunderground v.1.15,2013-07-28 15:38:00,
2013-07-28 11:44:00,82.8,75.2,30.01,North,358,1.0,3.0,78,0.00,,,0.00,Wunderground v.1.15,2013-07-28 15:44:00,
2013-07-28 11:50:00,83.1,74.7,30.01,ESE,107,1.0,1.0,76,0.00,,,0.00,Wunderground v.1.15,2013-07-28 15:50:00,
2013-07-28 11:56:00,82.7,74.8,30.01,ENE,60,1.0,3.0,77,0.00,,,0.00,Wunderground v.1.15,2013-07-28 15:56:00,
2013-07-28 12:02:00,82.7,73.6,30.01,NE,51,1.0,3.0,74,0.00,,,0.00,Wunderground v.1.15,2013-07-28 16:02:00,
2013-07-28 12:08:00,83.0,74.3,30.01,NNW,336,1.0,3.0,75,0.00,,,0.00,Wunderground v.1.15,2013-07-28 16:08:00,
2013-07-28 12:14:00,83.7,74.5,30.01,NE,50,1.0,3.0,74,0.00,,,0.00,Wunderground v.1.15,2013-07-28 16:14:00,
2013-07-28 12:20:00,83.3,73.3,30.01,East,79,1.0,3.0,72,0.00,,,0.00,Wunderground v.1.15,2013-07-28 16:20:00,
2013-07-28 12:26:00,83.0,73.9,30.01,NE,53,1.0,3.0,74,0.00,,,0.00,Wunderground v.1.15,2013-07-28 16:26:00,
2013-07-28 12:32:00,83.2,73.2,30.01,NE,49,2.0,3.0,72,0.00,,,0.00,Wunderground v.1.15,2013-07-28 16:32:00,
2013-07-28 12:38:00,83.1,74.7,30.01,NE,47,2.0,3.0,76,0.00,,,0.00,Wunderground v.1.15,2013-07-28 16:38:00,
2013-07-28 12:44:00,83.4,73.8,30.01,ENE,68,2.0,3.0,73,0.00,,,0.00,Wunderground v.1.15,2013-07-28 16:44:00,
2013-07-28 12:50:00,83.8,74.2,30.01,NW,308,2.0,3.0,73,0.00,,,0.00,Wunderground v.1.15,2013-07-28 16:50:00,
2013-07-28 12:56:00,84.0,74.8,30.01,East,79,1.0,4.0,74,0.00,,,0.00,Wunderground v.1.15,2013-07-28 16:56:00,
2013-07-28 13:02:00,84.3,75.1,30.01,NE,39,1.0,3.0,74,0.00,,,0.00,Wunderground v.1.15,2013-07-28 17:02:00,
2013-07-28 13:08:00,83.8,73.4,30.01,East,80,1.0,6.0,71,0.00,,,0.00,Wunderground v.1.15,2013-07-28 17:08:00,
2013-07-28 13:14:00,83.3,74.5,30.01,NNW,339,1.0,3.0,75,0.00,,,0.00,Wunderground v.1.15,2013-07-28 17:14:00,
2013-07-28 13:20:00,83.9,75.1,30.01,East,80,1.0,3.0,75,0.00,,,0.00,Wunderground v.1.15,2013-07-28 17:20:00,
2013-07-28 13:26:00,84.2,73.8,30.01,ENE,66,1.0,3.0,71,0.00,,,0.00,Wunderground v.1.15,2013-07-28 17:26:00,
2013-07-28 13:32:00,84.8,75.6,30.01,NNE,23,1.0,3.0,74,0.00,,,0.00,Wunderground v.1.15,2013-07-28 17:32:00,
2013-07-28 13:38:00,84.8,73.5,30.01,ENE,72,2.0,3.0,69,0.00,,,0.00,Wunderground v.1.15,2013-07-28 17:38:00,
2013-07-28 13:44:00,84.0,72.7,30.01,ENE,64,2.0,5.0,69,0.00,,,0.00,Wunderground v.1.15,2013-07-28 17:44:00,
2013-07-28 13:50:00,84.0,74.8,30.01,ENE,69,2.0,4.0,74,0.00,,,0.00,Wunderground v.1.15,2013-07-28 17:50:00,
2013-07-28 13:56:00,84.0,74.0,30.01,North,360,2.0,4.0,72,0.00,,,0.00,Wunderground v.1.15,2013-07-28 17:56:00,
2013-07-28 14:02:00,84.2,74.2,30.01,ENE,58,1.0,3.0,72,0.00,,,0.00,Wunderground v.1.15,2013-07-28 18:02:00,
2013-07-28 14:08:00,84.7,73.8,30.01,East,87,1.0,3.0,70,0.00,,,0.00,Wunderground v.1.15,2013-07-28 18:08:00,
2013-07-28 14:14:00,85.0,74.1,30.01,NE,56,2.0,3.0,70,0.00,,,0.00,Wunderground v.1.15,2013-07-28 18:14:00,
2013-07-28 14:20:00,84.2,75.0,30.01,NNE,25,2.0,2.0,74,0.00,,,0.00,Wunderground v.1.15,2013-07-28 18:20:00,
2013-07-28 14:26:00,84.4,74.0,30.01,ENE,57,1.0,3.0,71,0.00,,,0.00,Wunderground v.1.15,2013-07-28 18:26:00,
2013-07-28 14:32:00,84.4,74.8,30.01,ENE,66,1.0,3.0,73,0.00,,,0.00,Wunderground v.1.15,2013-07-28 18:32:00,
2013-07-28 14:38:00,84.5,74.9,30.00,NNW,333,1.0,3.0,73,0.00,,,0.00,Wunderground v.1.15,2013-07-28 18:38:00,
2013-07-28 14:44:00,84.5,73.2,30.00,North,8,1.0,3.0,69,0.00,,,0.00,Wunderground v.1.15,2013-07-28 18:44:00,
2013-07-28 14:50:00,84.7,73.4,30.00,NNW,345,1.0,5.0,69,0.00,,,0.00,Wunderground v.1.15,2013-07-28 18:50:00,
2013-07-28 14:56:00,85.0,71.9,30.00,ENE,59,2.0,5.0,65,0.00,,,0.00,Wunderground v.1.15,2013-07-28 18:56:00,
2013-07-28 15:02:00,85.3,72.6,29.99,ENE,72,1.0,3.0,66,0.00,,,0.00,Wunderground v.1.15,2013-07-28 19:02:00,
2013-07-28 15:08:00,85.2,75.1,29.99,NNW,332,1.0,3.0,72,0.00,,,0.00,Wunderground v.1.15,2013-07-28 19:08:00,
2013-07-28 15:14:00,86.0,75.1,29.99,NNE,26,1.0,4.0,70,0.00,,,0.00,Wunderground v.1.15,2013-07-28 19:14:00,
2013-07-28 15:20:00,86.4,73.7,29.99,NE,46,1.0,3.0,66,0.00,,,0.00,Wunderground v.1.15,2013-07-28 19:20:00,
2013-07-28 15:26:00,86.3,73.6,29.98,ENE,59,1.0,3.0,66,0.00,,,0.00,Wunderground v.1.15,2013-07-28 19:26:00,
2013-07-28 15:32:00,86.8,72.7,29.98,ENE,60,1.0,3.0,63,0.00,,,0.00,Wunderground v.1.15,2013-07-28 19:32:00,
2013-07-28 15:38:00,87.0,75.2,29.98,NE,39,1.0,3.0,68,0.00,,,0.00,Wunderground v.1.15,2013-07-28 19:38:00,
2013-07-28 15:44:00,86.8,74.1,29.98,NNW,334,1.0,3.0,66,0.00,,,0.00,Wunderground v.1.15,2013-07-28 19:44:00,
2013-07-28 15:50:00,86.7,74.9,29.98,NNW,337,1.0,1.0,68,0.00,,,0.00,Wunderground v.1.15,2013-07-28 19:50:00,
2013-07-28 15:56:00,86.8,74.1,29.98,ENE,64,1.0,3.0,66,0.00,,,0.00,Wunderground v.1.15,2013-07-28 19:56:00,
2013-07-28 16:02:00,87.1,73.9,29.97,NNW,339,1.0,3.0,65,0.00,,,0.00,Wunderground v.1.15,2013-07-28 20:02:00,
2013-07-28 16:08:00,87.5,73.3,29.97,NE,52,0.0,3.0,63,0.00,,,0.00,Wunderground v.1.15,2013-07-28 20:08:00,
2013-07-28 16:14:00,87.7,74.0,29.97,NW,314,1.0,3.0,64,0.00,,,0.00,Wunderground v.1.15,2013-07-28 20:14:00,
2013-07-28 16:20:00,87.7,74.0,29.97,NNW,331,1.0,3.0,64,0.00,,,0.00,Wunderground v.1.15,2013-07-28 20:20:00,
2013-07-28 16:26:00,87.7,74.0,29.97,WNW,301,1.0,3.0,64,0.00,,,0.00,Wunderground v.1.15,2013-07-28 20:26:00,
2013-07-28 16:32:00,86.9,71.8,29.97,NNW,335,1.0,3.0,61,0.00,,,0.00,Wunderground v.1.15,2013-07-28 20:32:00,
2013-07-28 16:38:00,86.4,74.1,29.97,North,8,1.0,3.0,67,0.00,,,0.00,Wunderground v.1.15,2013-07-28 20:38:00,
2013-07-28 16:44:00,86.6,72.5,29.97,NW,308,1.0,5.0,63,0.00,,,0.00,Wunderground v.1.15,2013-07-28 20:44:00,
2013-07-28 16:50:00,87.1,71.5,29.97,NW,324,1.0,3.0,60,0.00,,,0.00,Wunderground v.1.15,2013-07-28 20:50:00,
2013-07-28 16:56:00,87.2,72.1,29.97,NW,324,1.0,3.0,61,0.00,,,0.00,Wunderground v.1.15,2013-07-28 20:56:00,
2013-07-28 17:02:00,87.5,74.3,29.97,NNE,14,1.0,3.0,65,0.00,,,0.00,Wunderground v.1.15,2013-07-28 21:02:00,
2013-07-28 17:08:00,87.4,73.7,29.97,NNE,25,1.0,3.0,64,0.00,,,0.00,Wunderground v.1.15,2013-07-28 21:08:00,
2013-07-28 17:14:00,87.2,73.1,29.97,NE,37,1.0,3.0,63,0.00,,,0.00,Wunderground v.1.15,2013-07-28 21:14:00,
2013-07-28 17:20:00,87.0,72.4,29.97,NNW,347,1.0,1.0,62,0.00,,,0.00,Wunderground v.1.15,2013-07-28 21:20:00,
2013-07-28 17:26:00,87.0,73.3,29.97,NE,52,1.0,3.0,64,0.00,,,0.00,Wunderground v.1.15,2013-07-28 21:26:00,
2013-07-28 17:32:00,86.7,72.1,29.97,NNW,329,2.0,2.0,62,0.00,,,0.00,Wunderground v.1.15,2013-07-28 21:32:00,
2013-07-28 17:38:00,86.1,73.0,29.97,NW,316,2.0,3.0,65,0.00,,,0.00,Wunderground v.1.15,2013-07-28 21:38:00,
2013-07-28 17:44:00,85.7,72.6,29.97,NNW,328,2.0,3.0,65,0.00,,,0.00,Wunderground v.1.15,2013-07-28 21:44:00,
2013-07-28 17:50:00,85.0,72.4,29.97,NNW,335,2.0,3.0,66,0.00,,,0.00,Wunderground v.1.15,2013-07-28 21:50:00,
2013-07-28 17:56:00,84.4,72.2,29.97,NNW,341,1.0,3.0,67,0.00,,,0.00,Wunderground v.1.15,2013-07-28 21:56:00,
2013-07-28 18:02:00,84.1,72.8,29.97,West,278,1.0,3.0,69,0.00,,,0.00,Wunderground v.1.15,2013-07-28 22:02:00,
2013-07-28 18:08:00,84.3,73.0,29.97,NW,315,1.0,4.0,69,0.00,,,0.00,Wunderground v.1.15,2013-07-28 22:08:00,
2013-07-28 18:14:00,84.7,73.4,29.96,West,280,1.0,3.0,69,0.00,,,0.00,Wunderground v.1.15,2013-07-28 22:14:00,
2013-07-28 18:20:00,84.9,72.7,29.96,NNW,335,2.0,3.0,67,0.00,,,0.00,Wunderground v.1.15,2013-07-28 22:20:00,
2013-07-28 18:26:00,84.9,72.3,29.96,West,270,2.0,3.0,66,0.00,,,0.00,Wunderground v.1.15,2013-07-28 22:26:00,
2013-07-28 18:32:00,84.8,73.1,29.97,NNW,337,1.0,3.0,68,0.00,,,0.00,Wunderground v.1.15,2013-07-28 22:32:00,
2013-07-28 18:38:00,84.8,73.1,29.97,NW,324,1.0,3.0,68,0.00,,,0.00,Wunderground v.1.15,2013-07-28 22:38:00,
2013-07-28 18:44:00,84.6,72.0,29.97,WNW,296,2.0,3.0,66,0.00,,,0.00,Wunderground v.1.15,2013-07-28 22:44:00,
2013-07-28 18:50:00,84.6,73.3,29.97,NNE,20,1.0,1.0,69,0.00,,,0.00,Wunderground v.1.15,2013-07-28 22:50:00,
2013-07-28 18:56:00,84.6,72.0,29.97,NW,310,0.0,3.0,66,0.00,,,0.00,Wunderground v.1.15,2013-07-28 22:56:00,
2013-07-28 19:02:00,84.8,73.5,29.97,NNW,331,0.0,3.0,69,0.00,,,0.00,Wunderground v.1.15,2013-07-28 23:02:00,
2013-07-28 19:08:00,84.6,72.0,29.98,NW,316,1.0,3.0,66,0.00,,,0.00,Wunderground v.1.15,2013-07-28 23:08:00,
2013-07-28 19:14:00,84.5,73.2,29.98,West,281,1.0,3.0,69,0.00,,,0.00,Wunderground v.1.15,2013-07-28 23:14:00,
2013-07-28 19:20:00,84.1,73.3,29.98,NW,313,1.0,1.0,70,0.00,,,0.00,Wunderground v.1.15,2013-07-28 23:20:00,
2013-07-28 19:26:00,83.9,73.5,29.99,NNW,331,1.0,3.0,71,0.00,,,0.00,Wunderground v.1.15,2013-07-28 23:26:00,
2013-07-28 19:32:00,83.7,73.7,29.99,WNW,295,1.0,3.0,72,0.00,,,0.00,Wunderground v.1.15,2013-07-28 23:32:00,
2013-07-28 19:38:00,83.4,73.8,29.99,NW,315,1.0,3.0,73,0.00,,,0.00,Wunderground v.1.15,2013-07-28 23:38:00,
2013-07-28 19:44:00,83.0,73.9,29.99,West,272,1.0,3.0,74,0.00,,,0.00,Wunderground v.1.15,2013-07-28 23:44:00,
2013-07-28 19:50:00,82.7,74.0,30.00,WNW,289,0.0,3.0,75,0.00,,,0.00,Wunderground v.1.15,2013-07-28 23:50:00,
2013-07-28 19:56:00,82.4,73.3,30.00,WNW,291,0.0,3.0,74,0.00,,,0.00,Wunderground v.1.15,2013-07-28 23:56:00,
2013-07-28 20:02:00,82.2,73.5,30.00,WNW,291,0.0,3.0,75,0.00,,,0.00,Wunderground v.1.15,2013-07-29 00:02:00,
2013-07-28 20:08:00,82.0,73.7,30.00,WNW,293,0.0,3.0,76,0.00,,,0.00,Wunderground v.1.15,2013-07-29 00:08:00,
2013-07-28 20:14:00,81.7,73.4,30.00,WNW,292,0.0,3.0,76,0.00,,,0.00,Wunderground v.1.15,2013-07-29 00:14:00,
2013-07-28 20:20:00,81.5,73.6,30.00,WNW,296,0.0,3.0,77,0.00,,,0.00,Wunderground v.1.15,2013-07-29 00:20:00,
2013-07-28 20:26:00,81.2,73.3,30.00,WNW,296,0.0,3.0,77,0.00,,,0.00,Wunderground v.1.15,2013-07-29 00:26:00,
2013-07-28 20:32:00,80.9,73.4,30.01,WNW,296,0.0,3.0,78,0.00,,,0.00,Wunderground v.1.15,2013-07-29 00:32:00,
2013-07-28 20:38:00,80.5,73.4,30.01,WNW,296,0.0,3.0,79,0.00,,,0.00,Wunderground v.1.15,2013-07-29 00:38:00,
2013-07-28 20:44:00,80.2,73.5,30.01,WNW,296,0.0,3.0,80,0.00,,,0.00,Wunderground v.1.15,2013-07-29 00:44:00,
2013-07-28 20:50:00,79.9,73.2,30.01,WNW,296,0.0,3.0,80,0.00,,,0.00,Wunderground v.1.15,2013-07-29 00:50:00,
2013-07-28 20:56:00,79.7,73.0,30.01,West,274,0.0,3.0,80,0.00,,,0.00,Wunderground v.1.15,2013-07-29 00:56:00,
2013-07-28 21:02:00,79.5,72.4,30.01,NNW,328,0.0,3.0,79,0.00,,,0.00,Wunderground v.1.15,2013-07-29 01:02:00,
2013-07-28 21:08:00,79.5,72.4,30.01,NW,305,1.0,3.0,79,0.00,,,0.00,Wunderground v.1.15,2013-07-29 01:08:00,
2013-07-28 21:14:00,79.4,72.3,30.01,NNW,327,0.0,3.0,79,0.00,,,0.00,Wunderground v.1.15,2013-07-29 01:14:00,
2013-07-28 21:20:00,79.4,71.9,30.01,NW,304,1.0,1.0,78,0.00,,,0.00,Wunderground v.1.15,2013-07-29 01:20:00,
2013-07-28 21:26:00,79.3,72.2,30.01,NW,308,0.0,3.0,79,0.00,,,0.00,Wunderground v.1.15,2013-07-29 01:26:00,
2013-07-28 21:32:00,79.2,72.1,30.01,NW,309,0.0,3.0,79,0.00,,,0.00,Wunderground v.1.15,2013-07-29 01:32:00,
2013-07-28 21:38:00,79.1,72.0,30.02,NW,309,0.0,3.0,79,0.00,,,0.00,Wunderground v.1.15,2013-07-29 01:38:00,
2013-07-28 21:44:00,78.9,72.2,30.02,NW,309,0.0,3.0,80,0.00,,,0.00,Wunderground v.1.15,2013-07-29 01:44:00,
2013-07-28 21:50:00,78.8,72.1,30.02,NW,309,0.0,3.0,80,0.00,,,0.00,Wunderground v.1.15,2013-07-29 01:50:00,
2013-07-28 21:56:00,78.6,72.3,30.03,NW,309,0.0,3.0,81,0.00,,,0.00,Wunderground v.1.15,2013-07-29 01:56:00,
2013-07-28 22:02:00,78.5,72.5,30.03,NW,309,0.0,3.0,82,0.00,,,0.00,Wunderground v.1.15,2013-07-29 02:02:00,
2013-07-28 22:08:00,78.3,72.3,30.03,NW,309,0.0,3.0,82,0.00,,,0.00,Wunderground v.1.15,2013-07-29 02:08:00,
2013-07-28 22:14:00,78.1,72.2,30.03,NW,309,0.0,3.0,82,0.00,,,0.00,Wunderground v.1.15,2013-07-29 02:14:00,
2013-07-28 22:20:00,78.0,72.4,30.02,NW,309,0.0,3.0,83,0.00,,,0.00,Wunderground v.1.15,2013-07-29 02:20:00,
2013-07-28 22:26:00,77.8,72.2,30.02,NW,309,0.0,3.0,83,0.00,,,0.00,Wunderground v.1.15,2013-07-29 02:26:00,
2013-07-28 22:32:00,77.6,72.4,30.02,NW,309,0.0,3.0,84,0.00,,,0.00,Wunderground v.1.15,2013-07-29 02:32:00,
2013-07-28 22:38:00,77.4,72.2,30.02,NW,309,0.0,3.0,84,0.00,,,0.00,Wunderground v.1.15,2013-07-29 02:38:00,
2013-07-28 22:44:00,77.2,72.3,30.02,NW,309,0.0,3.0,85,0.00,,,0.00,Wunderground v.1.15,2013-07-29 02:44:00,
2013-07-28 22:50:00,76.9,72.0,30.02,NW,309,0.0,3.0,85,0.00,,,0.00,Wunderground v.1.15,2013-07-29 02:50:00,
2013-07-28 22:56:00,76.8,72.3,30.02,NW,309,0.0,3.0,86,0.00,,,0.00,Wunderground v.1.15,2013-07-29 02:56:00,
2013-07-28 23:02:00,76.7,72.2,30.02,WNW,296,0.0,3.0,86,0.00,,,0.00,Wunderground v.1.15,2013-07-29 03:02:00,
2013-07-28 23:08:00,76.7,72.2,30.02,West,272,0.0,3.0,86,0.00,,,0.00,Wunderground v.1.15,2013-07-29 03:08:00,
2013-07-28 23:14:00,76.8,72.3,30.02,NW,322,0.0,3.0,86,0.00,,,0.00,Wunderground v.1.15,2013-07-29 03:14:00,
2013-07-28 23:20:00,76.7,72.2,30.02,NW,322,0.0,3.0,86,0.00,,,0.00,Wunderground v.1.15,2013-07-29 03:20:00,
2013-07-28 23:26:00,76.8,72.3,30.02,WNW,287,0.0,3.0,86,0.00,,,0.00,Wunderground v.1.15,2013-07-29 03:26:00,
2013-07-28 23:32:00,76.8,72.6,30.03,NW,314,0.0,3.0,87,0.00,,,0.00,Wunderground v.1.15,2013-07-29 03:32:00,
2013-07-28 23:38:00,76.8,72.6,30.03,WNW,283,1.0,3.0,87,0.00,,,0.00,Wunderground v.1.15,2013-07-29 03:38:00,
2013-07-28 23:44:00,76.7,72.9,30.03,WNW,301,1.0,3.0,88,0.00,,,0.00,Wunderground v.1.15,2013-07-29 03:44:00,
2013-07-28 23:50:00,76.6,72.8,30.03,WNW,290,1.0,3.0,88,0.00,,,0.00,Wunderground v.1.15,2013-07-29 03:50:00,
2013-07-28 23:56:00,76.5,72.7,30.03,WNW,291,1.0,3.0,88,0.00,,,0.00,Wunderground v.1.15,2013-07-29 03:56:00,